Regional Weather Roundup
Issued by NWS New Orleans/Baton Rouge, LA

Home | Current Version | Previous Version | Text Only | Print | Product List | Glossary On
Versions: 1 2 3 4 5 6 7 8 9 10 11 12 13 14 15 16 17 18 19 20 21 22 23 24 25 26 27 28 29 30 31 32 33 34 35 36 37 38 39 40 41 42 43 44 45 46 47 48 49 50
000
ASUS44 KLIX 150410
RWRLIX
NEW ORLEANS REGIONAL WEATHER ROUNDUP
NATIONAL WEATHER SERVICE NEW ORLEANS LA
1100 PM CDT SUN SEP 14 2014

NOTE: "FAIR" INDICATES FEW OR NO CLOUDS BELOW 12,000 FEET WITH NO
      SIGNIFICANT WEATHER AND/OR OBSTRUCTIONS TO VISIBILITY.
      SKY/WX - SKY CONDITION AND SIGNIFICANT WEATHER.
      TMP - AIR TEMPERATURE.     DP    - DEWPOINT TEMPERATURE.
      RH  - RELATIVE HUMIDITY.   PRES  - PRESSURE.
      HI  - HEAT INDEX.          WCI   - WIND CHILL INDEX.

*  THESE STATIONS ARE NOT NWS OR FAA STATIONS AND ARE NOT UNDER
   NWS QUALITY CONTROL.

LAZ038-040-048-061>063-065>067-069-150500-
SOUTHEAST LOUISIANA

CITY           SKY/WX    TMP DP  RH WIND       PRES   REMARKS
N.O. AUDUBON     N/A     84  79  85 MISG        N/A  HX  95
N.O. INTL ARPT PTCLDY    83  75  77 CALM      30.09S
N.O. LAKEFRONT CLEAR     83  77  82 E5        30.09S
N.O. DOWNTOWN*   N/A     82  73  74 SE6       30.09S
SLIDELL        CLEAR     77  74  90 N3        30.09S
BATON ROUGE    CLEAR     74  71  91 NE5       30.11R
BOOTHVILLE     CLEAR     82  77  84 CALM      30.09R
BELLE CHASSE   CLEAR     77  73  87 CALM      30.08S
BOGALUSA*      MOCLDY    78  74  86 CALM      30.11F
GALLIANO*      NOT AVBL
NEW ROADS*       N/A     72  70  93 CALM      30.11S
GONZALES*        N/A     78  78 100 N5        30.09S
HAMMOND*       CLEAR     77  72  83 CALM      30.11F
HOUMA*         CLEAR     78  73  84 NE3       30.08S
PORT FOURCHON* PTCLDY    84  75  74 E12       30.10F

$$

MSZ070-080>082-150500-
SOUTHERN MISSISSIPPI

CITY           SKY/WX    TMP DP  RH WIND       PRES   REMARKS
MCCOMB         PTCLDY    77  70  79 N5        30.12S
GULFPORT       CLEAR     81  74  79 CALM      30.09S
BILOXI         CLEAR     78  74  87 E2        30.10S
PASCAGOULA     CLEAR     74  73  97 N3        30.10S

$$

COASTAL OBSERVATIONS
LAKE AND NEARSHORE STATIONS

STATION/POSITION TIME  TEMP    WIND        PRES    WAVE
                       AIR SEA DIR/SP/G            HT/PER
                 (UTC) (F)     (DEG/KT/KT) (MB)    (FT/S)
PASCAGOULA       0400   82      60/  3/  6 1018.7
WAVELAND YACHT   0400   82      50/  6/  7 1018.5
GRAND ISLE       0400   83 85  100/  8/ 12 1019.2
SOUTHWEST PASS   0400   84 90   90/ 16/ 17 1018.6
NEW CANAL        0400   82 83     CALM     1019.2
SHELL BEACH      0400   83 80   90/  5/  6 1018.8

OFFSHORE STATIONS

STATION/POSITION TIME  TEMP    WIND        PRES    WAVE
                       AIR SEA DIR/SP/G            HT/PER
                 (UTC) (F)     (DEG/KT/KT) (MB)    (FT/S)
64 S DAUPHIN ISL 0300   84 86  120/ 12/ 14 1019.1    3/ 7

$$



USA.gov is the U.S. government's official web portal to all federal, state and local government web resources and services.